Location: Bauerbach
(50.4985°N, 10.3912°E)
Time: 21:37:56
(UTC+00:00)

Cosmos 1745 Rocket - Pass Details

Date: 13 January 2026
Orbit: 952 x 996 km, 83.0° (Epoch: 17 February)

Event Time Altitude Azimuth Distance (km) Brightness Sun altitude
Exits shadow 03:49:17 66° 39° (NE) 1,044 4.1 -31.8°
Drops below altitude 10° 03:54:36 10° 12° (NNE) 2,692 6.4 -31.0°
Sets 03:57:06 0° 11° (NNE) 3,641 7.2 -30.6°
